Weather History for Orlando International, FL

Change the Weather History Date:

Tuesday, September 20, 2011

  Actual Average Record
Temperature  
Mean Temperature 81 °F 81 °F  
Max Temperature 88 °F 89 °F 96 °F (1936)
Min Temperature 74 °F 72 °F 50 °F (1910)
Degree Days  
Heating Degree Days 0 0  
Month to date heating degree days 0 0  
Since 1 July heating degree days 0 0  
Cooling Degree Days 16 16  
Month to date cooling degree days 328 333  
Year to date cooling degree days 3063 2726  
Growing Degree Days 30 (Base 50)    
Moisture  
Dew Point 74 °F    
Average Humidity 82    
Maximum Humidity 100    
Minimum Humidity 63    
Precipitation  
Precipitation T in 0.20 in 7.01 in (1897)
Month to date precipitation 2.55 4.21  
Year to date precipitation 43.78 40.82  
Sea Level Pressure  
Sea Level Pressure 29.99 in    
Wind  
Wind Speed 6 mph (East)    
Max Wind Speed 21 mph    
Max Gust Speed 25 mph    
Visibility 10 miles    
Events Rain , Thunderstorm    
T = Trace of Precipitation, MM = Missing Value Source: NWS Daily Summary

Daily Weather History Graph

Daily Weather History Graph

Search for Another Location

Airport:

Trip Planner

Search our weather history database for the weather conditions in past years. The results will help you decide how hot, cold, wet, or windy it might be!

Date:

Astronomy

Sep. 20, 2011 Rise Set
Actual Time 7:12 AM EDT 7:24 PM EDT
Civil Twilight 6:49 AM EDT 7:47 PM EDT
Nautical Twilight 6:21 AM EDT 8:15 PM EDT
Astronomical Twilight 5:53 AM EDT 8:43 PM EDT
Moon 12:04 AM EDT (9/20) 2:17 PM EDT (9/20)
Length of Visible Light 12h 58m
Length of Day
12h 11m
Waning Gibbous, 49% of the Moon is Illuminated
Sep 20
Waning Gibbous
Sep 27
New
Oct 3
First Quarter
Oct 11
Full
Oct 19
Last Quarter

Hourly Weather History & Observations

Time (EDT) Temp. Heat Index Dew Point Humidity Pressure Visibility Wind Dir Wind Speed Gust Speed Precip Events Conditions
12:53 AM 75.9 °F - 73.9 °F 94% 29.99 in 10.0 mi Calm Calm - N/A   Scattered Clouds
1:53 AM 75.9 °F - 73.9 °F 94% 29.97 in 10.0 mi Calm Calm - N/A   Scattered Clouds
2:53 AM 75.9 °F - 73.9 °F 94% 29.96 in 10.0 mi Calm Calm - N/A   Scattered Clouds
3:53 AM 75.9 °F - 73.9 °F 94% 29.95 in 10.0 mi ENE 4.6 mph - N/A   Partly Cloudy
4:53 AM 75.0 °F - 73.9 °F 96% 29.95 in 10.0 mi ENE 4.6 mph - N/A   Partly Cloudy
5:53 AM 73.9 °F - 73.0 °F 97% 29.96 in 10.0 mi Calm Calm - N/A   Partly Cloudy
6:53 AM 73.9 °F - 72.0 °F 93% 29.98 in 10.0 mi NE 3.5 mph - N/A   Partly Cloudy
7:53 AM 75.0 °F - 73.0 °F 94% 29.99 in 10.0 mi ENE 3.5 mph - N/A   Partly Cloudy
8:53 AM 78.1 °F - 73.9 °F 87% 30.01 in 10.0 mi Calm Calm - N/A   Partly Cloudy
9:53 AM 82.9 °F 90.2 °F 75.0 °F 77% 30.02 in 10.0 mi East 5.8 mph - N/A   Scattered Clouds
10:53 AM 84.9 °F 93.3 °F 75.0 °F 72% 30.02 in 10.0 mi SE 5.8 mph - N/A   Mostly Cloudy
11:53 AM 86.0 °F 95.1 °F 75.0 °F 70% 30.02 in 10.0 mi East 6.9 mph - N/A   Mostly Cloudy
12:53 PM 84.9 °F 91.4 °F 73.0 °F 67% 30.01 in 10.0 mi ESE 6.9 mph - N/A   Mostly Cloudy
1:44 PM 82.9 °F 87.5 °F 71.1 °F 67% 30.00 in 10.0 mi SE 8.1 mph - 0.00 in Rain , Thunderstorm Light Thunderstorms and Rain
1:53 PM 84.0 °F 89.6 °F 72.0 °F 67% 30.01 in 10.0 mi SSE 6.9 mph - 0.00 in Thunderstorm Thunderstorm
2:39 PM 84.9 °F 90.1 °F 71.1 °F 63% 29.98 in 10.0 mi ESE 11.5 mph - N/A   Mostly Cloudy
2:53 PM 84.9 °F 90.1 °F 71.1 °F 63% 29.98 in 10.0 mi ESE 8.1 mph - N/A   Mostly Cloudy
3:53 PM 87.1 °F 95.4 °F 73.9 °F 65% 29.95 in 10.0 mi SE 11.5 mph 18.4 mph N/A   Mostly Cloudy
4:53 PM 84.0 °F 91.2 °F 73.9 °F 72% 29.95 in 10.0 mi ESE 10.4 mph - N/A   Mostly Cloudy
5:53 PM 84.0 °F 91.2 °F 73.9 °F 72% 29.95 in 10.0 mi ESE 12.7 mph - N/A   Mostly Cloudy
6:53 PM 82.0 °F 88.6 °F 75.0 °F 79% 29.96 in 10.0 mi ESE 11.5 mph - N/A   Mostly Cloudy
7:53 PM 80.1 °F 85.1 °F 75.0 °F 85% 29.97 in 10.0 mi East 6.9 mph - N/A   Overcast
8:53 PM 79.0 °F - 75.9 °F 90% 30.00 in 10.0 mi East 5.8 mph - N/A   Mostly Cloudy
9:53 PM 78.1 °F - 75.0 °F 90% 30.01 in 10.0 mi East 3.5 mph - N/A   Mostly Cloudy
10:53 PM 78.1 °F - 75.9 °F 93% 30.01 in 10.0 mi East 4.6 mph - N/A   Mostly Cloudy
11:53 PM 78.1 °F - 75.9 °F 93% 30.02 in 10.0 mi East 4.6 mph - N/A   Mostly Cloudy